Time,TemperatureF,DewpointF,PressureIn,WindDirection,WindDirectionDegrees,WindSpeedMPH,WindSpeedGustMPH,Humidity,HourlyPrecipIn,Conditions,Clouds,dailyrainin,SoftwareType,DateUTC
2013-03-28 00:02:00,58.0,-99.9,-100.00,West,260,1.0,3.0,-999,-99.99,,,-99.99,,2013-03-28 05:02:00,
2013-03-28 00:13:00,58.0,-99.9,-100.00,West,260,1.0,3.0,-999,-99.99,,,-99.99,,2013-03-28 05:13:00,
2013-03-28 00:22:00,58.0,-99.9,-100.00,West,260,1.0,3.0,-999,-99.99,,,-99.99,,2013-03-28 05:22:00,
2013-03-28 01:33:00,54.0,-99.9,-100.00,SW,235,2.0,5.0,-999,-99.99,,,-99.99,,2013-03-28 06:33:00,
2013-03-28 01:43:00,54.0,-99.9,-100.00,SW,235,2.0,5.0,-999,-99.99,,,-99.99,,2013-03-28 06:43:00,
2013-03-28 03:10:00,48.0,-99.9,-100.00,East,83,1.0,5.0,-999,-99.99,,,-99.99,,2013-03-28 08:10:00,
2013-03-28 03:52:00,48.0,-99.9,-100.00,East,83,1.0,5.0,-999,-99.99,,,-99.99,,2013-03-28 08:52:00,
2013-03-28 04:02:00,48.0,-99.9,-100.00,East,83,1.0,5.0,-999,-99.99,,,-99.99,,2013-03-28 09:02:00,
2013-03-28 04:10:00,44.0,-99.9,-100.00,NW,314,1.0,3.0,-999,-99.99,,,-99.99,,2013-03-28 09:10:00,
2013-03-28 04:53:00,44.0,-99.9,-100.00,NW,314,1.0,3.0,-999,-99.99,,,-99.99,,2013-03-28 09:53:00,
2013-03-28 05:03:00,44.0,-99.9,-100.00,NW,314,1.0,3.0,-999,-99.99,,,-99.99,,2013-03-28 10:03:00,
2013-03-28 07:33:00,43.0,-99.9,-100.00,SW,232,4.0,5.0,-999,-99.99,,,-99.99,,2013-03-28 12:33:00,
2013-03-28 07:42:00,43.0,-99.9,-100.00,SW,232,4.0,5.0,-999,-99.99,,,-99.99,,2013-03-28 12:42:00,
2013-03-28 11:10:00,71.0,-99.9,-100.00,NW,311,3.0,3.0,-999,-99.99,,,-99.99,,2013-03-28 16:10:00,
2013-03-28 11:32:00,68.0,-99.9,-100.00,NNE,24,1.0,2.0,-999,-99.99,,,-99.99,,2013-03-28 16:32:00,
2013-03-28 11:42:00,68.0,-99.9,-100.00,NNE,24,1.0,2.0,-999,-99.99,,,-99.99,,2013-03-28 16:42:00,
2013-03-28 11:52:00,71.0,-99.9,-100.00,NW,311,3.0,3.0,-999,-99.99,,,-99.99,,2013-03-28 16:52:00,
2013-03-28 12:02:00,71.0,-99.9,-100.00,NW,311,3.0,3.0,-999,-99.99,,,-99.99,,2013-03-28 17:02:00,
2013-03-28 12:32:00,72.0,-99.9,-100.00,NNW,346,1.0,4.0,-999,-99.99,,,-99.99,,2013-03-28 17:32:00,
2013-03-28 12:42:00,72.0,-99.9,-100.00,NNW,346,1.0,4.0,-999,-99.99,,,-99.99,,2013-03-28 17:42:00,
2013-03-28 15:20:00,84.0,-99.9,-100.00,NE,42,3.0,4.0,-999,-99.99,,,-99.99,,2013-03-28 20:20:00,
2013-03-28 15:33:00,83.0,-99.9,-100.00,ESE,112,0.0,4.0,-999,-99.99,,,-99.99,,2013-03-28 20:33:00,
2013-03-28 15:43:00,83.0,-99.9,-100.00,ESE,112,0.0,4.0,-999,-99.99,,,-99.99,,2013-03-28 20:43:00,
2013-03-28 15:53:00,83.0,-99.9,-100.00,ESE,112,0.0,4.0,-999,-99.99,,,-99.99,,2013-03-28 20:53:00,
2013-03-28 16:03:00,84.0,-99.9,-100.00,NE,42,3.0,4.0,-999,-99.99,,,-99.99,,2013-03-28 21:03:00,
2013-03-28 16:12:00,84.0,-99.9,-100.00,NE,42,3.0,4.0,-999,-99.99,,,-99.99,,2013-03-28 21:12:00,
2013-03-28 17:03:00,85.0,-99.9,-100.00,ENE,73,3.0,4.0,-999,-99.99,,,-99.99,,2013-03-28 22:03:00,
2013-03-28 17:13:00,85.0,-99.9,-100.00,ENE,73,3.0,4.0,-999,-99.99,,,-99.99,,2013-03-28 22:13:00,
2013-03-28 17:23:00,85.0,-99.9,-100.00,ENE,73,3.0,4.0,-999,-99.99,,,-99.99,,2013-03-28 22:23:00,
2013-03-28 18:03:00,85.0,-99.9,-100.00,NE,44,2.0,5.0,-999,-99.99,,,-99.99,,2013-03-28 23:03:00,
2013-03-28 18:12:00,85.0,-99.9,-100.00,NE,44,2.0,5.0,-999,-99.99,,,-99.99,,2013-03-28 23:12:00,
2013-03-28 18:22:00,85.0,-99.9,-100.00,NE,44,2.0,5.0,-999,-99.99,,,-99.99,,2013-03-28 23:22:00,
2013-03-28 20:23:00,82.0,-99.9,-100.00,East,83,3.0,4.0,-999,-99.99,,,-99.99,,2013-03-29 01:23:00,
2013-03-28 20:33:00,82.0,-99.9,-100.00,East,83,3.0,4.0,-999,-99.99,,,-99.99,,2013-03-29 01:33:00,
2013-03-28 20:40:00,73.0,-99.9,-100.00,SE,134,2.0,2.0,-999,-99.99,,,-99.99,,2013-03-29 01:40:00,
2013-03-28 21:22:00,73.0,-99.9,-100.00,SE,134,2.0,2.0,-999,-99.99,,,-99.99,,2013-03-29 02:22:00,
2013-03-28 21:33:00,73.0,-99.9,-100.00,SE,134,2.0,2.0,-999,-99.99,,,-99.99,,2013-03-29 02:33:00,
2013-03-28 22:53:00,67.0,-99.9,-100.00,ESE,105,3.0,3.0,-999,-99.99,,,-99.99,,2013-03-29 03:53:00,
2013-03-28 23:03:00,67.0,-99.9,-100.00,ESE,105,3.0,3.0,-999,-99.99,,,-99.99,,2013-03-29 04:03:00,